Погода в Ургенче

Погода в Ургенче : погода сейчас, прогноз погоды и архив. Всё, что Вы хотите узнать о погоде в Ургенче!

Поиск расширенной информации на нашем сайте:

Другие новости

Новости СМИ2

Главная страница сайта

Новости сайта

03.07.2017

Напоминаем, что на нашем специализированном сайте Метеоцентр.Азия вы можете получить высокодетализированные автоматические прогнозы погоды по пунктам России, СНГ и мира в авиационном формате (включающие направление и скорость ветра, видимость, явления погоды, количество и форму облачности, нижнюю и верхнюю границу облачности).

Рекомендуем: туроператоры по абхазии

Погода в Ургенче - сегодня

Время (UTC), дата Ветер
(°,м/с) 
Видим.   Явления Облачность Т
(°С)
Тd
(°С)
f(%) Тe
(°С)
Pmin
(гПа)
dP
(гПа)
Po
(мм)
O2
(г/м3)
Тmin Tmax R s Состояние
почвы
00 19.09.17 320 (СЗ) 4000 м    ясно 
+13.4 +6.8 64 +14  1018.2  0.1  755  289           
03 19.09.17 тихо ()   10 км    ясно 
+16 +8.5 61 +16  1018.9  0.9  755  286  +12.2         
06 19.09.17 070 (В) 4000 м    ясно 
+28.1 +8.6 29 +28  1019.4  0.9  756  275  +12.2         
09 19.09.17 030 (СВ) 10 км    ясно 
+31.9 +1.3 14 +32  1018.2  -1  755  272           
12 19.09.17 050 (СВ) 10 км    ясно 
+31.9 +7 21 +32  1017.2  -1  754  271           
15 19.09.17 330 (СЗ) 4000 м    ясно 
+21.5 +9.9 48 +22  1018.4  0.6  755  280    +32.6       
18 19.09.17 010 (С) 10 км    ясно 
+18.8 +9.3 54 +19  1018.2  -0.1  755  283    +32.6       
21 19.09.17 300 (СЗ) 10 км    ясно 
+18.7 +8 50 +19  1017.6  -1.4  754  283           
00 20.09.17 030 (СВ) 10 км    ясно 
+18.2 +7.6 50 +19  1017.8  0.2  754  284    +1.6       
03 20.09.17 040 (СВ) 10 км    ясно 
+19.4 +7.3 45 +20  1018  0.2  755  283  +16.7  +1.6       
06 20.09.17 020 (С) 10 км    ясно 
+26.4 +8.5 32 +26  1018  0.3  755  276  +16.7         
09 20.09.17 360 (С) 10 км    ясно 
+30.5 +1.9 16 +31  1016.5  -1.3  754  273           
12 20.09.17 010 (С) 10 км    ясно 
+30.3 +2.7 17 +30  1015.5  -1  753  273           
15 20.09.17 360 (С) 4000 м    ясно 
+20.7 +8.8 46 +21  1016.1  0.2  753  281    +31.2       
18 20.09.17 360 (С) 4000 м    ясно 
+17 +6.7 51 +17  1015.9  -0.4  753  285    +31.2       
21 20.09.17 350 (С) 4000 м    ясно 
+15.9 +4.3 46 +17  1015.1  -0.9  752  286           
00 21.09.17 350 (С) 4000 м    ясно 
+14.8 +4.8 51 +15  1014.4  -0.6  752  287           
03 21.09.17 340 (С) 4000 м    ясно 
+15 +5.8 54 +16  1014.9  0.4  752  286  +11.6        сухая 
06 21.09.17 360 (С) 10 км    ясно 
+24.6 +5.9 30 +25  1014.4  -0.1  752  277  +11.6         
09 21.09.17 040 (СВ) 10 км    ясно 
+28.8 +0.4 16 +29  1013  -1.2  751  274           
12 21.09.17 360 (С) 10 км    ясно 
+29.3 +1.5 17 +29  1012.4  -0.6  751  273           
15 21.09.17 340 (С) 4000 м    ясно 
+19 +9.5 54 +21  1013  0.2  751  281    +29.9       
18 21.09.17 350 (С) 10 км    ясно 
+14.5 +5.1 53 +15  1012.8  -0.3  751  286    +29.9       
21 21.09.17 290 (З) 10 км    ясно 
+13.3 +1.5 45 +14  1012.4    750  288           
00 22.09.17 310 (СЗ) 4000 м    ясно 
+11.5 +2.3 53 +12  1012.3  -0.2  750  290           
Время (UTC), дата Ветер
(°,м/с) 
Видим.   Явления Облачность Т
(°С)
Тd
(°С)
f(%) Тe
(°С)
Pmin
(гПа)
dP
(гПа)
Po
(мм)
O2
(г/м3)
Тmin Tmax R s Состояние
почвы

Для получения пояснительной информации подведите курсор к названию столбца.

ПОГОДА в Ургенче - архив

Всё, что Вы хотите узнать о погоде в Ургенче - удобно и подробно!

Выберите нужную дату (начиная с 1 января 2015* года) и нажмите кнопку "Найти".
Будут отображены архивные сводки погоды по пункту Ургенч, начиная с указанной даты.


Отображать данные в формате CSV (для использования в таблицах Excel)


Внимание! Наш архив погоды предназначен исключительно для личного некоммерческого использования в познавательных целях. Если Вам необходимы официальные справки о состоянии погоды (для производственных, юридических, коммерческих и т.п. целей), обращайтесь в органы Росгидромета.

*Примечание: данная дата относится к архиву по метеостанциям СССР (Россия, СНГ, Балтия).
Архив по метеостанциям Зарубежной Европы и Азии (кроме Китая) хранится 10 дней, по другим регионам земного шара (Китай, Африка, Америка, Австралия, Океания) - 1 день.

Ургенч - район местоположения метеостанции


Название, широта, долгота, высота метеостанции:
Ургенч 41.6°ш. 60.6°д. 101 м над ур. моря [Узбекистан]

Дополнительная информация

В oтличие oт бoльшинства пoгoдных сайтoв мы публикуем пoдрoбную метеoинфoрмацию в детальнoм прoфессиoнальнoм фoрмате.

Характеристики температуры и влажнoсти вoздуха измеряются на высoте 2 м в тени вдали oт зданий и деревьев.
Скoрoсть ветра измеряется на высoте 10 м (на урoвне рoста челoвека скoрoсть ветра ниже в 1.5-2 раза). Если метеoстанция нахoдится в гoрoде или в лесу, тo скoрoсть ветра занижена на 2-4 м/с пo сравнению с oткрытым местoм. Скoрoсть ветра над акватoриями крупных рек и oзёр, а также на вершинах хoлмoв на 2-5 м/с выше, чем в oбычных услoвиях.
Атмoсфернoе давление в разных тoчках местнoсти мoжет значительнo oтличаться oт давления на метеoстанции, в зависимoсти oт услoвий рельефа (при пoдъёме на 10 м давление пoнижается примернo на 1 мм рт.ст.).